Other Public Products
Issued by NWS Charleston, SC

Current Version | Previous Version | Text Only | Print | Product List | Glossary Off
Versions: 1 2 3 4 5 6 7 8 9 10 11 12 13 14 15 16 17 18 19 20 21 22 23 24 25 26 27 28 29 30 31 32 33 34 35 36 37 38 39 40 41 42 43 44 45 46 47 48 49 50

000
FPUS82 KCHS 250411
OPUCHS

TEST...KCHS/KSAV Gateway Observations...TEST
National Weather Service Charleston SC
1100 PM EST FRI FEB 24 2017

NOTE: "fair" indicates few or no clouds below 12,000 feet with no
significant weather and/or obstructions to visibility.

SCZ050-WAZ558-NCZ071-TXZ119-213-PAZ071-DCZ001-FLZ074-172-MI076-
NYZ176-178-MAZ016-IL014-TNZ027-NJZ106-GAZ044-MD014-250500-
...Gateway Observations for Charleston International...

CITY           SKY/WX    TMP DP  RH WIND       PRES   REMARKS
Chas Airport   CLEAR     61  58  90 CALM      29.85S
Seattle        MOCLDY    41  34  76 NW8       30.21R
Charlotte      PTCLDY    63  52  67 S8        29.82S
Dallas DFW     CLEAR     51  30  44 N13       30.05R
Dallas Love    CLEAR     53  28  38 N13       30.06R
Philladelphia  PTCLDY    59  56  89 S8        29.84F
Wash National  MOCLDY    61  58  90 S10       29.79F
Baltimore      MOCLDY    60  59  96 SE5       29.79F
Miami          PTCLDY    70  66  87 SW5       29.87R
Detroit        RAIN      58  55  90 SW14      29.44F
Newark         MOCLDY    60  57  89 S7        29.86R
Laguardia      CLOUDY    56  53  90 S7        29.87R
J F K          FOG       50  50 100 S10       29.89R VSB 1/4
Boston Logan   PTCLDY    52  51  97 S10       29.87F
Ft. Lauderdale PTCLDY    73  67  81 NE3       29.86R
Chicago O`Hare CLOUDY    35  31  85 NW9       29.58R WCI  28
Chicago Midway MOCLDY    37  32  82 W9        29.58S WCI  30
Houston Bush   CLEAR     62  43  49 N15       29.95R
Houston Hobby  CLEAR     64  43  46 N15       29.93R
Nashville      CLOUDY    67  51  56 W7        29.67F
Atlanta        MOCLDY    67  54  63 S9        29.79F

$$

GAZ044-118-TXZ119-213-NCZ071-DCZ001-MDZ014-506-PAZ021-071-NJZ106-
NYZ176-178-MAZ106-OHZ011-021-055-MIZ076-KYZ091-ILZ014-INZ047-
MNZ060-ONZ431-250500-
...Gateway Observations for Savannah International...

CITY           SKY/WX    TMP DP  RH WIND       PRES   REMARKS
Savannah Arpt  CLEAR     60  58  92 CALM      29.87R
Atlanta        MOCLDY    67  54  63 S9        29.79F
Charlotte      PTCLDY    63  52  67 S8        29.82S
Dallas DFW     CLEAR     51  30  44 N13       30.05R
Houston Bush   CLEAR     62  43  49 N15       29.95R
Wash National  MOCLDY    61  58  90 S10       29.79F
Wash Dulles    MOCLDY    63  56  78 S12       29.76F
Baltimore      MOCLDY    60  59  96 SE5       29.79F
Philadelphia   PTCLDY    59  56  89 S8        29.84F
Newark         MOCLDY    60  57  89 S7        29.86R
Laguardia      CLOUDY    56  53  90 S7        29.87R
J F K          FOG       50  50 100 S10       29.89R VSB 1/4
Boston         PTCLDY    52  51  97 S10       29.87F
Pittsburg      CLOUDY    64  47  53 S7        29.59F
Akron          CLOUDY    67  47  48 S15       29.52F
Cleveland      TSTM      60  55  83 SW13G21   29.57R
Cincinnati     CLOUDY    55  49  80 NW24G31   29.61R
Columbus       TSTM      57  54  92 S12       29.57R
Detroit        RAIN      58  55  90 SW14      29.44F
Chicago O`Hare CLOUDY    35  31  85 NW9       29.58R WCI  28
Minneapolis    PTCLDY    22   9  57 N14       29.89S WCI   9
Indianapolis   CLOUDY    47  41  80 W15G25    29.65R
Toronto Canada FOG       37  37 100 SE7       29.56S VSB 1/2 WCI  32

$$




USA.gov is the U.S. government's official web portal to all federal, state and local government web resources and services.